Torna al catalogo

DELTA 1 DEB

AttivoLEO
NORAD 10251·DEBRIS·🇺🇸 United States

Lanciato Jul 14, 1977 da Cape Canaveral Space Force Station

Loading…

Prossimi Passaggi (prossime 24 ore)

TLE

AggiornatoSource: Space-Track

Epoca: Sep 14, 2026, 11:53 UTC

1 10251U 77065CC  26257.49574777  .00003498  00000-0  46111-3 0  9996
2 10251  28.9725  53.9975 0665846 164.0580 198.2061 13.85861165429669

Traccia DELTA 1 DEB in tempo reale con AllMySat

Download on the App Store